Kezdőlap
METAR-TAF:

METAR-TAF

Repülőterek :

Knoxville Municipal Airport

Knoxville, Iowa, Amerikai Egyesült Államok

földrajzi szélesség: 41-18N, földrajzi hosszúság: 093-07W, magasság: 283 m

Jelenlegi meteorológiai megfigyelések

A jelentés 21 perccel ezelõtt készült, 13:55 UTC
Kelet-délkeleti szél 12 kt széllökések: 22 kt
Hőmérséklet 18°C
Páratartalom 83%
Légköri nyomás 1003 hPa
Látótávolság: 16.1 km
Kevés felhő 6500 lábon
Kevés felhő 8000 lábon
Kevés felhő 10000 lábon

METAR: KOXV 161355Z AUTO 12012G22KT 10SM FEW065 FEW080 FEW100 18/15 A2962 RMK AO2 P0002

Idő: 09:16 (14:16 UTC)


TAF: hiányzik

Meteorológiai megfigyelések és előrejelzések több, mint 4000 repülőtéren (METAR és TAF jelentéseket).

A térképen piros és sárga pontok jelzik az elérhető meteorológiai állomásokat.

Mozgassa az egeret a pont fölött, hogy megjelenjen az állomás neve.

Azután kattintson az időjárási megfigyelések és előrejelzések megtekintéséhez.

A térkép megváltoztatása: kattintson a fekete keresztel jelölt zöld gombra ráközelítéshez, a vonallal jelölt zöld gombra távolításhoz, vagy a zöld nyilakra a szomszédos térképek eléréséhez.


METAR-TAF: